TimeEST,TemperatureF,Dew PointF,Humidity,Sea Level PressureIn,VisibilityMPH,Wind Direction,Wind SpeedMPH,Gust SpeedMPH,PrecipitationIn,Events,Conditions,WindDirDegrees,DateUTC
12:15 AM,75.2,46.4,36,30.06,10.0,NE,15.0,23.0,N/A,,Scattered Clouds,40,2013-11-04 05:15:00
12:35 AM,75.2,46.4,36,30.07,10.0,NE,16.1,20.7,N/A,,Scattered Clouds,50,2013-11-04 05:35:00
12:55 AM,73.4,46.4,38,30.07,10.0,NNE,11.5,24.2,N/A,,Scattered Clouds,30,2013-11-04 05:55:00
1:15 AM,73.4,46.4,38,30.07,10.0,NE,15.0,20.7,N/A,,Scattered Clouds,50,2013-11-04 06:15:00
1:35 AM,73.4,46.4,38,30.07,10.0,NE,13.8,-,N/A,,Scattered Clouds,50,2013-11-04 06:35:00
1:55 AM,73.4,44.6,36,30.07,10.0,NE,12.7,-,N/A,,Scattered Clouds,40,2013-11-04 06:55:00
2:15 AM,73.4,42.8,33,30.07,10.0,NE,13.8,17.3,N/A,,Scattered Clouds,40,2013-11-04 07:15:00
2:35 AM,73.4,41.0,31,30.07,10.0,NE,12.7,-,N/A,,Clear,40,2013-11-04 07:35:00
2:55 AM,73.4,41.0,31,30.07,10.0,NNE,9.2,-,N/A,,Clear,30,2013-11-04 07:55:00
3:15 AM,73.4,42.8,33,30.07,10.0,NE,11.5,-,N/A,,Clear,40,2013-11-04 08:15:00
3:35 AM,73.4,41.0,31,30.06,10.0,NE,6.9,-,N/A,,Clear,40,2013-11-04 08:35:00
3:55 AM,73.4,41.0,31,30.06,10.0,NE,9.2,-,N/A,,Clear,40,2013-11-04 08:55:00
4:15 AM,73.4,39.2,29,30.05,10.0,NE,11.5,-,N/A,,Clear,50,2013-11-04 09:15:00
4:35 AM,73.4,41.0,31,30.05,10.0,NE,10.4,-,N/A,,Clear,50,2013-11-04 09:35:00
4:55 AM,73.4,42.8,33,30.06,10.0,ENE,9.2,-,N/A,,Clear,60,2013-11-04 09:55:00
5:15 AM,73.4,41.0,31,30.07,10.0,ENE,8.1,-,N/A,,Clear,60,2013-11-04 10:15:00
6:47 AM,75.2,51.8,44,30.08,7.0,ENE,16.1,23.0,N/A,,Mostly Cloudy,60,2013-11-04 11:47:00
7:47 AM,77.0,50.0,39,30.10,7.0,ENE,17.3,27.6,N/A,,Mostly Cloudy,60,2013-11-04 12:47:00
8:47 AM,78.8,50.0,36,30.11,6.0,ENE,21.9,32.2,N/A,,Mostly Cloudy,60,2013-11-04 13:47:00
9:47 AM,80.6,48.2,32,30.12,7.0,ENE,18.4,26.5,N/A,,Mostly Cloudy,60,2013-11-04 14:47:00
10:47 AM,80.6,55.4,42,-9999,7.0,ENE,23.0,31.1,N/A,,Mostly Cloudy,60,2013-11-04 15:47:00
11:47 AM,78.8,53.6,42,-9999,7.0,North,-9999.0,-,N/A,,Mostly Cloudy,0,2013-11-04 16:47:00
12:47 PM,80.6,50.0,34,-9999,7.0,ENE,23.0,28.8,N/A,,Mostly Cloudy,60,2013-11-04 17:47:00
1:47 PM,80.6,55.4,42,-9999,7.0,ENE,19.6,28.8,N/A,,Mostly Cloudy,60,2013-11-04 18:47:00
2:47 PM,80.6,53.6,39,-9999,7.0,NE,24.2,29.9,N/A,,Mostly Cloudy,50,2013-11-04 19:47:00
3:47 PM,77.0,57.2,50,-9999,7.0,NE,17.3,25.3,N/A,,Mostly Cloudy,50,2013-11-04 20:47:00
4:47 PM,77.0,60.8,57,-9999,7.0,ENE,21.9,29.9,N/A,,Mostly Cloudy,70,2013-11-04 21:47:00
5:47 PM,77.0,59.0,54,-9999,7.0,ENE,21.9,27.6,N/A,,Mostly Cloudy,60,2013-11-04 22:47:00
6:47 PM,77.0,55.4,47,-9999,7.0,ENE,23.0,29.9,N/A,,Mostly Cloudy,60,2013-11-04 23:47:00
7:15 PM,77.0,53.6,44,30.10,10.0,ENE,19.6,26.5,N/A,,Mostly Cloudy,60,2013-11-05 00:15:00
7:35 PM,77.0,53.6,44,30.11,10.0,ENE,23.0,27.6,N/A,,Overcast,60,2013-11-05 00:35:00
7:55 PM,77.0,59.0,54,30.11,10.0,ENE,16.1,24.2,N/A,,Mostly Cloudy,60,2013-11-05 00:55:00
8:15 PM,77.0,57.2,50,30.11,10.0,ENE,19.6,25.3,N/A,,Overcast,70,2013-11-05 01:15:00
8:35 PM,77.0,55.4,47,30.11,10.0,ENE,19.6,27.6,N/A,,Overcast,60,2013-11-05 01:35:00
8:55 PM,77.0,55.4,47,30.12,10.0,ENE,18.4,26.5,N/A,,Mostly Cloudy,70,2013-11-05 01:55:00
9:15 PM,77.0,53.6,44,30.12,10.0,ENE,21.9,26.5,N/A,,Mostly Cloudy,70,2013-11-05 02:15:00
9:35 PM,77.0,53.6,44,30.12,10.0,ENE,20.7,28.8,N/A,,Scattered Clouds,70,2013-11-05 02:35:00
9:55 PM,77.0,53.6,44,30.12,10.0,East,16.1,25.3,N/A,,Scattered Clouds,80,2013-11-05 02:55:00
10:15 PM,77.0,53.6,44,30.12,10.0,ENE,18.4,23.0,N/A,,Scattered Clouds,70,2013-11-05 03:15:00
10:35 PM,77.0,53.6,44,30.12,10.0,ENE,18.4,25.3,N/A,,Scattered Clouds,70,2013-11-05 03:35:00
10:55 PM,77.0,53.6,44,30.12,10.0,East,17.3,25.3,N/A,,Scattered Clouds,80,2013-11-05 03:55:00
11:15 PM,77.0,53.6,44,30.12,10.0,East,16.1,27.6,N/A,,Mostly Cloudy,80,2013-11-05 04:15:00
11:35 PM,77.0,55.4,47,30.11,10.0,East,17.3,24.2,N/A,,Scattered Clouds,80,2013-11-05 04:35:00
11:55 PM,77.0,55.4,47,30.11,10.0,East,18.4,24.2,N/A,,Clear,80,2013-11-05 04:55:00